TimeMST,TemperatureF,Dew PointF,Humidity,Sea Level PressureIn,VisibilityMPH,Wind Direction,Wind SpeedMPH,Gust SpeedMPH,PrecipitationIn,Events,Conditions,WindDirDegrees,DateUTC
12:53 AM,21.0,10.0,63,30.31,10.0,SW,21.9,34.5,N/A,,Overcast,220,2013-01-16 07:53:00
1:53 AM,21.0,10.0,63,30.30,10.0,SSW,23.0,35.7,N/A,,Overcast,210,2013-01-16 08:53:00
2:53 AM,19.9,9.0,62,30.30,10.0,SW,24.2,34.5,N/A,,Clear,220,2013-01-16 09:53:00
3:53 AM,19.9,9.0,62,30.31,10.0,SSW,26.5,38.0,N/A,,Clear,210,2013-01-16 10:53:00
4:53 AM,19.0,8.1,62,30.31,10.0,SW,27.6,35.7,N/A,,Clear,220,2013-01-16 11:53:00
5:53 AM,19.0,8.1,62,30.33,10.0,SSW,25.3,35.7,N/A,,Clear,210,2013-01-16 12:53:00
6:53 AM,19.9,8.1,60,30.35,10.0,SW,24.2,34.5,N/A,,Clear,220,2013-01-16 13:53:00
7:53 AM,19.9,9.0,62,30.38,10.0,SW,24.2,34.5,N/A,,Clear,220,2013-01-16 14:53:00
8:53 AM,21.9,10.0,60,30.40,10.0,SSW,24.2,32.2,N/A,,Clear,210,2013-01-16 15:53:00
9:53 AM,23.0,10.9,60,30.39,10.0,SSW,26.5,40.3,N/A,,Clear,210,2013-01-16 16:53:00
10:53 AM,26.1,12.0,55,30.38,10.0,SW,27.6,41.4,N/A,,Clear,220,2013-01-16 17:53:00
11:53 AM,26.6,12.2,55,30.22,10.0,SSW,31.1,46.0,N/A,,Clear,210,2013-01-16 18:53:00
12:53 PM,28.4,12.2,51,30.23,10.0,SSW,27.6,38.0,N/A,,Clear,210,2013-01-16 19:53:00
1:53 PM,33.1,15.1,48,30.32,10.0,SW,25.3,34.5,N/A,,Clear,220,2013-01-16 20:53:00
2:53 PM,33.1,15.1,48,30.33,10.0,SSW,28.8,34.5,N/A,,Clear,210,2013-01-16 21:53:00
3:53 PM,30.9,12.9,47,30.35,10.0,SW,21.9,35.7,N/A,,Clear,230,2013-01-16 22:53:00
4:53 PM,28.9,12.0,49,30.38,10.0,SW,21.9,28.8,N/A,,Clear,220,2013-01-16 23:53:00
5:53 PM,27.0,12.0,53,30.41,10.0,SSW,20.7,29.9,N/A,,Clear,210,2013-01-17 00:53:00
6:53 PM,26.1,10.9,53,30.44,10.0,SSW,23.0,29.9,N/A,,Clear,210,2013-01-17 01:53:00
7:53 PM,25.0,10.9,55,30.45,10.0,SW,18.4,-,N/A,,Clear,220,2013-01-17 02:53:00
8:53 PM,25.0,10.9,55,30.45,10.0,SSW,21.9,29.9,N/A,,Clear,210,2013-01-17 03:53:00
9:53 PM,25.0,10.0,53,30.46,10.0,SW,17.3,25.3,N/A,,Clear,220,2013-01-17 04:53:00
10:53 PM,25.0,10.0,53,30.44,10.0,SW,17.3,25.3,N/A,,Clear,220,2013-01-17 05:53:00
11:53 PM,25.0,10.0,53,30.46,10.0,SSW,20.7,28.8,N/A,,Clear,210,2013-01-17 06:53:00